Location: *
(45.9500°N, 9.0833°E)
Time: 23:20:56
(UTC+00:00)

Vanguard 2 Rocket - Pass Details

Date: 15 June 2021
Orbit: 555 x 3325 km, 32.9° (Epoch: 03 August)

Event Time Altitude Azimuth Distance (km) Brightness Sun altitude
Rises 21:39:24 0° 252° (WSW) 6,987 11.5 -16.7°
Reaches altitude 10° 21:44:49 10° 247° (WSW) 5,667 10.9 -17.1°
Maximum altitude 21:59:14 43° 184° (S) 2,616 8.8 -18.1°
Enters shadow 22:07:23 13° 118° (ESE) 3,355 9.4 -18.5°
Drops below altitude 10° 22:07:57 10° 116° (ESE) 3,489 - -18.6°
Sets 22:10:28 0° 109° (ESE) 4,165 - -18.7°
